User: anonymous   Login
Location: Blandford
(50.8667°N, 2.1667°W)
Time: 13:16:09
(UTC+00:00)
Language:

STARLINK-1216 - Orbit

View from above orbital plane
View from above orbital plane
View from above satellite
View from above satellite

Ground track
Ground track

The orbit data is extracted from the following two-line orbital elements,

1 45185C 20012H   21207.15561634  .00005116  00000-0  34243-3 0  2075
2 45185  53.0536  62.2592 0001773 100.9939 203.6439 15.06430441    18
Epoch (UTC): 26 July 2021 03:44:05
Eccentricity: 0.0001773
inclination: 53.0536°
perigee height: 546 km
apogee height: 548 km
right ascension of ascending node: 62.2592°
argument of perigee: 100.9939°
revolutions per day: 15.06430441
mean anomaly at epoch: 203.6439°
orbit number at epoch: 1

The dashed part of the orbit path shows where the satellite is in the earth's shadow,  

DLR